Helicity
51 51 49 46 46 44 39 30 25 27 25 25 27 26 22 23 27 28 30 51 62 48
54 54 54 59 60 53 45 39 38 34 34 35 40 46 43 44 46 40 36 40 40 52
63 68 76 80 65 58 58 53 50 49 48 49 54 57 57 55 59 57 46 35 37 30
87 95 103 92 83 76 76 68 66 66 64 65 69 72 72 65 64 69 67 64 54 34
144 148 134 113 109 109 96 89 87 85 79 74 76 76 77 73 62 68 79 74 65 56
224 216 169 151 157 151 141 123 111 103 90 81 80 76 68 60 64 69 70 71 71 69
310 277 246 217 207 191 170 160 139 120 113 106 99 89 77 73 76 77 78 76 78 82
345 328 320 291 275 255 226 192 176 170 158 139 123 109 90 79 77 81 79 77 81 72
372 397 380 365 370 334 279 248 239 212 192 169 159 132 110 96 86 74 83 85 72 70
382 396 407 426 440 412 370 333 286 259 245 226 201 171 153 136 137 123 98 84 85 89
387 384 428 457 478 470 463 414 380 314 292 271 246 203 183 174 179 167 129 104 89 82
351 354 404 421 445 480 503 476 428 377 334 292 263 222 198 209 212 190 182 157 124 100
319 315 345 355 403 465 483 480 468 425 375 296 263 229 230 242 242 218 210 199 163 111
261 289 318 403 471 466 461 493 518 474 441 352 295 273 232 233 265 248 228 225 224 182
Wind_Speed
19 21 24 25 28 32 35 38 41 44 46 48 49 51 52 52 52 52 52 52 52 48
18 20 22 24 27 30 33 36 40 42 45 47 48 50 51 51 52 52 54 54 54 54
19 21 23 25 28 30 32 35 38 41 44 46 47 49 50 50 52 52 53 54 56 55
22 25 26 28 29 30 32 33 37 39 42 45 47 49 50 50 52 54 55 55 56 58
28 28 30 32 31 30 32 33 35 38 40 43 46 49 51 52 53 56 57 58 58 59
37 36 35 34 32 31 32 34 35 37 40 43 47 50 51 52 55 57 58 59 60 60
42 41 40 38 36 34 35 36 37 39 41 45 48 51 52 53 56 58 58 60 61 62
49 47 45 43 40 39 39 40 41 43 45 46 49 51 50 53 56 58 60 60 60 59
52 51 50 49 47 47 46 46 46 46 47 48 50 49 50 53 54 55 58 61 60 60
54 55 56 55 54 52 51 49 50 50 49 51 51 51 52 53 54 56 56 57 60 63
57 59 59 59 60 58 55 55 56 55 54 55 55 53 54 54 55 56 56 58 59 61
59 61 62 63 63 62 61 61 60 60 59 60 59 55 57 58 59 61 61 59 59 63
59 60 61 62 62 62 62 63 61 62 60 60 62 58 58 60 64 70 70 64 66 68
57 59 60 59 60 60 61 62 63 64 62 60 59 62 63 63 68 71 73 74 75 75
Wind_Direction
326 330 333 337 340 342 344 347 349 351 354 356 358 360 1 1 2 1 359 354 352 354
314 320 324 329 333 335 338 341 343 347 350 353 355 356 356 357 356 353 347 344 344 338
301 308 314 318 321 325 330 335 340 343 346 348 350 351 351 351 350 348 345 342 338 335
290 297 302 306 310 316 323 329 333 337 340 342 343 345 345 345 342 341 340 340 338 334
281 287 293 296 301 308 314 321 326 331 334 337 338 339 337 337 335 335 334 335 335 334
274 278 283 288 293 299 305 311 317 322 325 328 330 330 330 330 329 329 330 331 331 332
269 271 277 283 287 291 296 302 306 312 316 319 322 323 325 325 326 327 328 328 328 328
271 272 275 278 280 285 289 293 298 303 307 311 315 317 320 322 323 324 324 326 327 328
272 272 271 273 276 279 283 287 291 295 299 304 309 312 315 317 318 321 322 322 324 325
271 272 272 272 273 275 277 281 285 289 293 297 302 306 309 311 313 315 317 319 320 321
272 273 274 272 270 273 275 277 282 285 289 293 298 300 303 305 307 309 311 313 315 315
274 275 275 272 272 273 274 277 280 285 287 290 294 296 299 301 303 304 306 308 309 309
279 278 277 276 275 275 274 276 278 282 286 287 290 293 295 298 301 301 302 304 303 303
286 283 282 281 280 277 276 278 279 282 285 287 288 290 293 295 296 298 299 300 299 300